Location: Irki
(50.6543°N, 18.8163°E)
Time: 06:10:22
(UTC+00:00)

Daily predictions for brighter satellites

Satellite Brightness Start Highest point End
(mag) Time Altitude Azimuth Time Altitude Azimuth Time Altitude Azimuth
Feng Yun 1-1 Rocket 4.3 18:20:03 10° SSE 18:25:27 64° ENE 18:30:48 10° N
Cosmos 1869 Rocket 4.4 18:22:53 10° SSW 18:27:13 56° WNW 18:31:37 10° N
Cosmos 2369 Rocket 2.9 18:22:14 10° NNW 18:27:32 41° NE 18:32:48 10° ESE
TSX-5 4.0 18:23:01 10° SSW 18:27:44 90° ENE 18:31:37 10° NNE
Meteor 1-31 Rocket 2.5 18:24:19 10° SSE 18:27:50 85° ENE 18:31:23 10° NNW
Cosmos 1602 4.5 18:26:50 10° NNE 18:28:15 15° ENE 18:29:39 10° ESE
Cosmos 1812 1.6 18:29:46 10° SSE 18:31:15 26° E 18:32:43 10° NNE
Aureole 3 4.2 18:26:31 10° N 18:31:36 80° E 18:37:38 10° SSE
ADEOS 3.9 18:27:21 10° SE 18:32:23 52° ENE 18:37:26 10° N
USA 234 3.9 18:27:49 10° ENE 18:33:36 32° SE 18:39:20 10° SSW
SL-08 R/B 4.2 18:30:53 10° NNE 18:35:13 30° E 18:39:30 10° SSE
MOS 1 4.3 18:30:01 10° SSE 18:35:37 69° ENE 18:41:16 10° NNW
CBERS 1 LM4 rocket 4.4 18:31:28 10° SSE 18:36:07 63° ENE 18:40:54 10° N
Meteor 1-11 4.3 18:33:27 10° NNW 18:38:59 85° W 18:44:30 10° S
Cosmos 2221 Rocket 4.2 18:36:50 10° N 18:40:59 38° ENE 18:45:07 10° SE
RESURS DK-1 2.3 18:37:21 10° SSW 18:41:18 85° WNW 18:45:17 10° NNE
Lacrosse 5 rocket 2.6 18:39:22 10° NW 18:42:06 25° N 18:44:49 10° ENE
Cosmos 2278 Rocket 4.0 18:40:04 10° NW 18:44:57 31° WSW 18:49:50 10° SSW
USA 186 2.9 18:43:56 12° ESE 18:45:07 17° ENE 18:46:46 10° NNE
USA 32 4.1 18:42:39 10° S 18:47:53 89° W 18:53:10 10° N
CZ-4B DEB 4.3 18:42:52 10° SSE 18:48:21 84° WSW 18:53:54 10° NNW
CZ-4B R/B 3.3 18:43:18 10° SSE 18:48:53 74° ENE 18:54:33 10° NNW
Cosmos 405 Rocket 3.9 18:48:56 10° NNE 18:50:56 17° ENE 18:52:20 13° E
SL-24 R/B 4.3 18:48:20 10° NNE 18:53:06 59° E 18:57:21 10° S
SL-8 R/B 4.1 18:48:47 10° SW 18:53:12 41° SSE 18:57:39 10° E
CZ-4B R/B 4.3 18:52:52 12° ESE 18:54:48 18° ENE 18:57:09 10° NNE
NOSS 2-1 (D) 4.4 18:52:22 10° WNW 18:55:32 36° SW 18:59:32 10° SSE
Cosmos 1125 Rocket 3.7 18:51:34 10° SSW 18:56:49 78° WNW 19:02:07 10° NNE
ERS-1 Rocket 3.1 18:55:34 10° SSE 19:00:35 81° WSW 19:05:38 10° NNW
Cosmos 2292 Rocket 3.2 18:58:25 10° N 19:02:51 77° ENE 19:06:14 11° SSE
Cosmos 1674 Rocket 3.6 18:58:43 10° NNW 19:03:04 82° W 19:07:25 10° S
NOSS 2-1 (E) 4.2 19:00:32 10° WNW 19:03:43 39° SW 19:07:43 10° SSE
BREEZE-M DEB (TANK) 2.1 19:02:18 10° W 19:04:31 60° S 19:06:41 17° ESE
Cosmos 2298 Rocket 4.3 19:03:51 10° S 19:08:55 47° ESE 19:14:01 10° NNE
Okean-O 2.7 19:07:12 14° SSE 19:10:49 58° ENE 19:15:09 10° N
Cosmos 44 3.4 19:06:57 10° SSW 19:11:58 63° SE 19:17:15 10° NE
Cosmos 1727 Rocket 4.3 19:06:23 10° NNW 19:12:44 74° W 19:18:58 10° S
CZ-2C R/B 4.0 19:12:52 14° E 19:13:35 15° ENE 19:15:21 10° NNE
MetOp-B 4.4 19:08:40 10° S 19:14:00 72° WSW 19:19:23 10° NNW
Cosmos 1908 Rocket 3.6 19:09:49 10° S 19:14:03 58° E 19:18:18 10° NNE
IRS-1A Rocket 4.3 19:09:07 10° SSE 19:14:45 89° ENE 19:20:33 10° NNW
SL-08 R/B 4.5 19:09:27 10° S 19:15:29 65° E 19:21:32 10° NNE
Cosmos 1934 Rocket 4.1 19:11:44 10° SSE 19:17:47 55° E 19:23:47 10° NNE
SL-16 R/B 2.2 19:12:23 10° SSW 19:17:59 66° ESE 19:23:38 10° NE
CZ-4B R/B 4.1 19:15:34 18° ESE 19:18:34 36° ENE 19:22:55 10° N
Okean O Rocket 1.5 19:15:51 15° SSE 19:19:22 73° ENE 19:23:41 10° N
Ariane Rocket 3.9 19:17:09 18° ESE 19:20:16 34° ENE 19:24:48 10° N
Geosat 4.2 19:16:08 10° NE 19:20:59 47° ESE 19:25:47 10° S
Cosmos 1782 Rocket 4.0 19:21:41 19° SSE 19:24:18 38° E 19:28:18 10° NNE
CZ-4 R/B 3.3 19:21:38 10° SSW 19:24:45 25° W 19:27:53 10° NW
Cosmos 1269 Rocket 4.4 19:21:32 10° NNW 19:26:43 51° ENE 19:29:59 21° SE
Spot 2 Rocket 3.4 19:23:16 14° SSE 19:27:35 88° ENE 19:32:38 10° NNW
MOS 1-B 4.3 19:23:34 14° SSE 19:28:40 87° ENE 19:34:30 10° NNW
ATLAS 5 CENTAUR R/B 3.0 19:25:26 10° NNW 19:28:41 26° NNE 19:31:56 12° E
NOSS 3-1 (C) 4.0 19:22:23 10° NW 19:29:15 87° SW 19:35:43 19° SE
Cosmos 1140 Rocket 3.7 19:24:40 10° NNW 19:29:44 57° ENE 19:32:51 23° SE
Helios 1A Rocket 4.2 19:28:55 10° N 19:31:49 31° WNW 19:34:41 10° SW
Cosmos 1025 Rocket 3.9 19:27:46 10° NNW 19:31:53 48° W 19:35:59 10° SSW
USA 245 4.2 19:28:49 21° SE 19:32:01 59° ENE 19:37:33 10° N
Dummy Sat-01 4.5 19:29:31 14° S 19:32:35 85° E 19:36:16 10° N
Cosmos 546 4.4 19:29:44 10° W 19:33:24 88° N 19:35:45 21° E
Terra 2.9 19:33:05 10° S 19:37:33 43° W 19:42:01 10° NNW
BREEZE-M DEB (TANK) 3.1 19:37:38 10° W 19:40:31 48° SSW 19:43:54 23° SE
Cosmos 2123 Rocket 4.1 19:35:07 10° NNW 19:41:25 80° W 19:47:09 13° S
Gblst 52 Del rocket 4.5 19:38:58 10° WSW 19:45:03 83° SSE 19:52:07 10° ENE
Cosmos 2237 Rocket 4.1 19:41:18 10° WSW 19:46:23 32° NW 19:51:31 10° NNE
Cosmos 407 Rocket 4.2 19:41:33 10° NNW 19:46:25 41° ENE 19:48:51 25° ESE
Cosmos 1862 3.5 19:44:32 10° N 19:47:59 42° ENE 19:48:48 36° ESE
Cosmos 1174 3.0 19:47:39 10° NW 19:50:55 81° NE 19:51:31 53° SE
Cosmos 2150 Rocket 4.1 19:45:51 10° SSW 19:51:00 79° WNW 19:56:16 10° NNE
Cosmos 2058 3.2 19:47:22 10° N 19:51:08 44° ENE 19:52:11 35° ESE
Cosmos 1300 Rocket 3.4 19:48:13 16° S 19:51:34 87° E 19:55:54 10° N
Cosmos 371 Rocket 4.2 19:48:17 10° NNW 19:52:46 36° NE 19:54:49 25° ESE
BREEZE-M DEB (TANK) 2.8 19:51:50 10° W 19:54:31 74° S 19:58:00 21° ESE
COSMOS 2455 3.1 19:48:52 10° NNW 19:54:51 60° NE 19:58:10 27° ESE
SL-4 R/B 3.8 19:56:35 10° SSW 19:57:34 16° SSW 19:57:34 16° SSW
BREEZE-M DEB (TANK) 4.3 19:55:15 10° SW 20:00:07 62° SE 20:20:21 10° ENE
SJ 16-02 2.5 19:59:04 10° N 20:02:48 29° ENE 20:04:02 25° E
ASTEX 1 4.2 19:59:48 11° SSW 20:04:16 48° W 20:09:05 10° NNW
Cosmos 1535 Rocket 4.4 20:00:37 19° S 20:05:08 75° E 20:11:18 10° NNE
Cosmos 1605 Rocket 3.9 20:02:58 21° S 20:07:08 72° E 20:13:17 10° NNE
Gbstr 26 Del rocket 3.8 20:02:37 10° SW 20:06:31 34° SSE 20:06:31 34° SSE
Cosmos 2297 4.3 20:01:44 10° NW 20:07:17 51° WSW 20:10:44 22° S
Cosmos 1869 3.9 20:06:01 15° SSW 20:08:43 47° WNW 20:12:12 10° N
Cosmos 1315 Rocket 2.5 20:08:54 38° S 20:10:15 88° E 20:14:02 10° NNE
SPOT 3 Rocket 3.6 20:08:16 28° S 20:11:03 79° WSW 20:16:15 10° NNW
Cosmos 2369 Rocket 3.1 20:06:20 10° NW 20:11:34 42° WSW 20:14:59 20° SSW
USA 186 3.6 20:14:08 15° WSW 20:14:32 15° W 20:16:01 10° NW
USA 234 3.2 20:10:35 10° ENE 20:17:10 85° SSE 20:23:45 10° WSW
Lacrosse 5 rocket 1.2 20:16:06 10° NW 20:19:12 49° NNE 20:19:32 46° NE
SeaSat 1 4.0 20:17:06 18° E 20:19:32 27° NE 20:23:36 10° NNW
Cosmos 405 Rocket 3.7 20:21:21 10° NW 20:23:54 27° W 20:24:26 25° WSW
Cosmos 1603 4.0 20:26:12 39° SE 20:27:12 43° ESE 20:32:33 10° NE
CZ-4B R/B 3.5 20:27:34 33° SW 20:28:20 38° W 20:31:33 10° NNW
Cosmos 1943 3.1 20:23:23 10° SSW 20:28:59 86° ESE 20:34:43 10° NNE
NOSS 3-1 (A) 4.0 20:22:03 10° NW 20:29:00 83° SW 20:33:19 33° SE
Cosmos 921 Rocket 3.1 20:24:37 10° NNW 20:29:01 69° WSW 20:30:06 47° S
Meteor 2-3 Rocket 4.3 20:24:49 10° N 20:30:10 43° ENE 20:31:47 35° ESE
IRS-1C Rocket 4.4 20:31:47 33° S 20:34:07 63° WSW 20:39:23 10° NNW
Cosmos 1975 Rocket 3.7 20:30:03 10° NNW 20:34:20 49° W 20:35:59 32° SSW
Helios 1B rocket 3.4 20:35:11 28° ENE 20:35:11 28° ENE 20:38:00 10° N
SL-8 R/B 3.5 20:30:30 10° WSW 20:35:12 68° S 20:36:05 54° ESE
Cosmos 1356 Rocket 3.6 20:36:35 41° SW 20:37:49 66° WNW 20:41:49 10° N
Cosmos 2151 Rocket 4.0 20:39:51 43° E 20:39:51 43° E 20:43:52 10° NNE
Okean 1 Rocket 4.2 20:40:47 29° ENE 20:40:47 29° ENE 20:44:04 10° NNE
Cosmos 1980 Rocket 4.4 20:36:35 10° N 20:40:22 18° NNE 20:44:09 10° ENE
Cosmos 2100 Rocket 4.2 20:42:04 41° SE 20:43:43 52° E 20:49:42 10° NNE
CZ-2C R/B 3.6 20:44:39 30° W 20:44:39 30° W 20:46:54 10° NNW
Cosmos 1190 Rocket 4.3 20:40:47 10° NNW 20:46:01 56° ENE 20:47:18 44° ESE
Cosmos 304 Rocket 3.7 20:41:33 10° NNW 20:46:19 79° WSW 20:47:13 58° S
Okean 2 Rocket 3.8 20:47:17 39° E 20:47:17 39° E 20:51:08 10° NNE
Helios 1A 3.8 20:43:23 10° NNE 20:46:20 35° ENE 20:46:20 35° ENE
Okean O Rocket 4.1 20:53:39 10° WSW 20:56:03 14° W 20:58:27 10° NW
Cosmos 2360 4.3 20:52:53 10° NNW 20:58:35 66° ENE 21:00:06 47° ESE
Ariane Rocket 4.0 20:57:13 29° SW 20:59:05 39° W 21:03:50 10° NNW
Cosmos 1656 3.6 20:56:17 10° NNW 21:01:46 76° ENE 21:02:57 55° SE
ATLAS 3B R/B 3.9 20:54:39 10° NW 21:02:06 43° NNE 21:08:29 13° E
SL-16 R/B 4.1 20:57:36 10° WSW 21:02:32 30° NW 21:07:31 10° NNE
ATLAS 5 CENTAUR R/B 1.5 21:06:57 10° NW 21:11:03 75° SW 21:11:03 75° SW
Cosmos 332 Rocket 4.2 21:06:27 10° NNW 21:11:08 48° ENE 21:11:40 46° E
BREEZE-M DEB (TANK) 4.3 20:55:48 10° SW 21:11:22 55° SSE 21:16:37 10° E
Cosmos 1420 Rocket 3.9 21:14:16 67° SE 21:14:41 70° ESE 21:19:58 10° NNE
Cosmos 1954 Rocket 3.8 21:11:12 10° NNW 21:16:28 80° ENE 21:17:07 68° SE
Cosmos 1833 Rocket 3.9 21:19:38 26° E 21:19:38 26° E 21:23:21 10° NE
Cosmos 676 Rocket 4.0 21:14:47 10° NNW 21:20:03 66° ENE 21:20:45 59° ESE
Cosmos 1818 3.4 21:17:08 10° NW 21:22:37 79° SW 21:23:15 68° S
Cosmos 1725 Rocket 4.0 21:24:13 55° SE 21:25:27 67° E 21:31:43 10° NNE
Sich 1 Rocket 3.7 21:26:27 68° NE 21:26:27 68° NE 21:30:24 10° NNE
ALOS 2 3.4 21:26:08 39° ENE 21:26:08 39° ENE 21:30:12 10° N
Cosmos 407 Rocket 4.4 21:23:38 10° NW 21:28:13 34° WSW 21:28:58 32° WSW
USA 229 DEB 4.4 21:21:23 10° NW 21:28:33 59° NE 21:33:11 26° ESE
USA 229 4.4 21:21:26 10° NW 21:28:36 58° NE 21:33:18 26° ESE
Cosmos 1459 Rocket 4.0 21:26:51 50° SSW 21:28:41 86° W 21:35:01 10° N
Spot 4 4.1 21:29:18 52° ENE 21:29:28 52° ENE 21:34:06 10° N
ARIANE 5 R/B 3.0 21:32:43 54° ENE 21:32:43 54° ENE 21:36:46 10° N
Cosmos 371 Rocket 4.2 21:28:34 10° NW 21:32:58 35° WSW 21:33:16 35° WSW
Cosmos 2233 Rocket 4.1 21:33:59 51° ESE 21:34:52 55° E 21:40:57 10° NNE
ATLAS 2AS CENTAUR R/B 3.1 21:38:07 41° ESE 21:38:07 41° ESE 21:44:14 10° NE
Meteor 2-1 Rocket 4.2 21:37:34 58° SSW 21:38:46 82° WNW 21:44:34 10° N
COSMOS 2455 3.8 21:35:12 10° NW 21:40:28 32° WSW 21:41:17 31° SW
ARIANE 6 FM1 Upper Stage 3.3 21:36:33 10° NW 21:40:04 49° NNE 21:40:04 49° NNE
Cosmos 2056 Rocket 3.5 21:40:33 67° ESE 21:40:33 67° ESE 21:45:55 10° NNE
SJ 16-02 2.4 21:37:02 10° NW 21:40:32 35° W 21:40:32 35° W
Cosmos 2228 4.2 21:42:18 32° NE 21:42:18 32° NE 21:45:03 10° NNE
Cosmos 1802 Rocket 3.9 21:40:52 57° S 21:42:17 89° W 21:48:34 10° N
Cosmos 2251 Rocket 3.8 21:37:53 10° NNW 21:43:04 53° WSW 21:43:27 52° WSW
Cosmos 1624 Rocket 3.9 21:48:22 72° E 21:48:22 72° E 21:53:23 10° NNE
CZ-2C R/B 3.9 21:47:40 27° E 21:49:03 31° ENE 21:53:44 10° N
Cosmos 292 Rocket 4.0 21:46:43 10° NNW 21:51:29 62° ENE 21:51:29 62° ENE
SeaSat 1 2.4 21:56:42 69° WSW 21:56:42 69° WSW 22:01:28 10° NW
Cosmos 2016 Rocket 4.0 21:55:13 59° SSW 21:56:33 84° W 22:02:55 10° N
Cosmos 1626 Rocket 4.5 21:55:27 10° N 21:58:59 40° NE 21:58:59 40° NE
ACS3 Solar Sail 4.0 21:58:29 10° ENE 21:59:38 11° ENE 22:00:48 10° E
USA 234 3.9 21:53:39 10° ENE 22:00:01 56° NNW 22:06:23 10° W
Cosmos 1697 Rocket 2.5 21:59:15 10° NNW 22:04:56 82° ENE 22:05:24 74° ESE
Helios 1B rocket 4.3 22:09:10 20° WNW 22:09:10 20° WNW 22:10:53 10° NW
Cosmos 1782 4.3 22:11:12 31° NNE 22:11:12 31° NNE 22:13:08 10° NNE
Cosmos 1892 Rocket 4.2 22:05:18 10° NNW 22:09:00 49° WNW 22:09:00 49° WNW
Cosmos 2151 4.0 22:13:21 10° N 22:16:37 40° NE 22:16:37 40° NE
Okean 1 Rocket 4.4 22:17:47 32° WNW 22:17:58 32° WNW 22:21:54 10° N
CZ-4C R/B 4.2 22:20:44 12° E 22:20:44 12° E 22:21:20 10° ENE
Cosmos 1371 Rocket 4.2 22:23:19 59° W 22:23:51 63° WNW 22:29:10 10° NNE
Meteor 1-20 Rocket 4.3 22:19:14 10° N 22:24:40 62° ENE 22:25:03 60° E
Cosmos 1980 Rocket 2.5 22:19:57 10° NNW 22:25:36 59° NE 22:26:39 51° E
Meteor 1-22 4.5 22:21:47 10° N 22:27:09 79° ENE 22:27:16 79° E
Cosmos 968 Rocket 3.7 22:22:26 10° NNW 22:27:16 60° W 22:27:16 60° W
MetOp-A 3.9 22:27:45 84° NE 22:27:45 84° NE 22:32:51 10° NNW
Cosmos 1455 Rocket 3.9 22:28:48 46° WNW 22:28:48 46° WNW 22:32:46 10° N
ARGOS Delta rocket 4.0 22:24:16 10° NNE 22:28:14 63° NE 22:28:14 63° NE
CZ-2C R/B 4.2 22:25:26 10° N 22:29:25 51° NW 22:29:25 51° NW
Tsikada Rocket 4.3 22:25:13 10° NNW 22:31:18 54° W 22:32:10 50° WSW
Cosmos 1741 Rocket 3.9 22:31:00 10° NNW 22:36:11 80° W 22:36:11 80° W
Cosmos 2061 Rocket 4.0 22:35:46 58° SW 22:36:48 68° WNW 22:43:00 10° N
Cosmos 1544 Rocket 4.2 22:38:21 52° NE 22:38:21 52° NE 22:41:53 10° NNE
Cosmos 1452 Rocket 3.7 22:41:37 58° E 22:41:37 58° E 22:46:21 10° NNE
Cosmos 1758 Rocket 4.1 22:41:11 10° NNW 22:44:33 53° NNW 22:44:33 53° NNW
Cosmos 1891 Rocket 4.4 22:52:35 69° SSW 22:53:26 86° W 22:59:41 10° N
ATLAS 3B R/B 2.8 22:45:46 10° NW 22:53:38 82° SW 22:55:41 53° SSE
Cosmos 1867 3.5 22:54:03 71° E 22:54:03 71° E 22:59:13 10° NE
Cosmos 2333 Rocket 4.0 22:51:56 10° NNW 22:56:47 28° NE 23:01:38 10° E
Aureole 3 Rocket 4.0 22:58:44 52° W 22:59:17 54° WNW 23:05:49 10° N
Cosmos 1933 4.5 23:02:05 39° NNE 23:02:05 39° NNE 23:04:35 10° NNE
Cosmos 1833 Rocket 3.0 23:01:16 51° W 23:02:14 59° NW 23:07:48 10° NNE
ALOS 2 4.3 23:03:31 25° WNW 23:03:31 25° WNW 23:06:17 10° NW
Cosmos 2082 Rocket 3.0 23:02:51 38° ESE 23:02:51 38° ESE 23:08:01 10° NE
BREEZE-M R/B 4.1 22:59:02 10° W 23:06:26 90° N 23:12:22 10° E
Cosmos 2322 Rocket 4.3 23:03:27 10° NNW 23:07:59 24° NE 23:12:30 10° E
CZ-2C R/B 3.0 23:03:41 10° NNE 23:08:58 80° WNW 23:09:16 77° WSW
Cosmos 1825 Rocket 4.1 23:06:01 10° N 23:09:41 54° NE 23:09:41 54° NE
Cosmos 1437 Rocket 4.3 23:16:08 30° NNE 23:16:08 30° NNE 23:18:04 10° NNE
Cosmos 1602 Rocket 4.2 23:10:47 10° NNW 23:14:04 48° NW 23:14:04 48° NW
USA 229 DEB 4.2 23:12:23 10° NW 23:19:36 52° WSW 23:20:33 49° SW
USA 229 4.2 23:12:26 10° NW 23:19:40 52° WSW 23:20:40 50° SW
Cosmos 1302 Rocket 3.9 23:22:30 80° ESE 23:22:30 80° ESE 23:27:38 10° NNE
SL-16 R/B 3.2 23:18:47 10° NNW 23:24:11 42° NE 23:27:50 19° ESE
Cosmos 1428 Rocket 4.4 23:18:57 10° NNW 23:25:18 80° W 23:26:15 65° SSW
Cosmos 1992 Rocket 4.4 23:25:21 51° ESE 23:25:21 51° ESE 23:30:23 10° NNE
Landsat 5 3.9 23:21:19 10° NNE 23:24:55 62° N 23:24:55 62° N
ATLAS 2AS CENTAUR R/B 3.0 23:25:29 33° WSW 23:28:37 61° NW 23:35:23 10° NE
CZ-2C R/B 3.0 23:29:07 51° W 23:29:07 51° W 23:34:21 10° NNW
Cosmos 44 Rocket 4.3 23:29:36 37° ESE 23:29:36 37° ESE 23:33:50 10° NE
Cosmos 2098 Rocket 3.6 23:36:56 65° WSW 23:37:28 69° WNW 23:43:03 10° N
Nadezhda 4 Rocket 4.1 23:36:25 10° NNW 23:42:23 54° W 23:43:04 52° WSW
USA 234 3.9 23:36:13 10° E 23:42:32 54° N 23:48:53 10° WNW
Cosmos 2237 4.1 23:37:06 10° NNW 23:42:52 86° WSW 23:43:42 67° SSE
ACS3 Solar Sail 2.0 23:37:20 10° NNE 23:43:18 58° E 23:44:42 47° SE
IDEFIX/ARIANE 42P 3.8 23:40:39 10° NNE 23:45:10 30° E 23:46:20 27° ESE
Cosmos 1697 Rocket 4.4 23:44:20 10° WNW 23:47:06 18° W 23:47:06 18° W
Cosmos 1536 3.8 23:47:01 10° N 23:50:04 40° NE 23:50:04 40° NE
Cosmos 1606 Rocket 3.9 23:55:25 58° NW 23:55:25 58° NW 23:59:28 10° N
